Showing default

S-NET B, 43187

Orbit data source: Space-Track

S-NET B, 43187 is a payload satellite owned by TUB (DE) in SSO that was launched on Thu, 01 Feb 2018 UTC via a SOYUZ-2-1A launch vehicle from the Vostochny Cosmodrome (VOSTO). Payload-class satellites include a variety of spacecraft equipped with specific instruments for various scientific and technological missions. These include communications satellites like Starlink; space stations such as the ISS; scientific satellites like the Hubble; Earth observation satellites from companies like Planet Labs, Umbra, and HawkEye 360; GPS; miniature CubeSats for education and research; and military/defense satellites.

Loading next visibility...
Identifier
43187, 2018-014H
Orbit
SSO
Country
Flag of DEDE / GER
Related business
Manufacturer
TUB
Mission
Operational Amateur Com/Tech
Bus & Motor
TUBIX10, Unknown motor
Mass
8 kg wet, 8 kg dry
Launch date (UTC)
2018-02-01 (9 years ago)
Launch vehicle
SOYUZ-2-1A
Launch site
Vostochny Cosmodrome (VOSTO)
Object type
Payload
Rocket body
Debris
Shape & HBR
Box, 1.0 m
Radar Cross Section
0.086 m², Medium (>0.1 m² and < 1m²)

Expand to show TLE details & history
Last TLE update: 20 hours ago

TLE from 20 hours ago
0 S-NET B
1 43187U 18014H   26254.15747158  .00003696  00000-0  18854-3 0  9997
2 43187  97.5266 158.3950 0010464  78.0861 282.1545 15.17318336471799
Epoch: 2026-09-11T03:46Z
TLE epoch observation values (Epoch: 2026-09-11T03:46:45.544Z)
Latitude
-0.00003°
Longitude
111.52038°
Altitude
515.521 km
Speed
7.607 km/s
True Right ascension
10h 33m 34s
True Declination
0° 00' 00"
Sunlit
Object was in daylight at epoch
Visualization orbit readout
Latitude
Unknown
Longitude
Unknown
Altitude
Unknown
Speed
Unknown
Apparent Right ascension
Unknown
Apparent Declination
Unknown
Sunlit
N/A
Visualization observer readout
Local Sidereal Time
15:49:09
Azimuth
Unknown
Elevation
Unknown
Doppler factor
Unknown
Orbital elements
Apogee altitude
518.133 km
Perigee altitude
503.715 km
Semi-major axis
6,889.061 km
Eccentricity
0.00105
Inclination
97.5266°
RAAN
158.395°
Arg. of periapsis
78.0861°
True anomaly
282.03725°
Mean anomaly
282.1545°
Eccentric anomaly
282.09588°
Mean motion
3.7958 °/min
Orbital period
94.84 mins
BSTAR
0.00018854
Loading maneuver chart data...
Computing Atmospheric mass density...
Loading historical data...
Loading historical data...
Loading historical data...
Loading historical data...
Loading historical data...
Loading historical data...
Loading historical data...

Documentation

Showing up to 5 results
|